Showing default

METEOSAT 10 (MSG 3), 38552

Orbit data source: Space-Track

METEOSAT 10 (MSG 3), 38552 is a payload satellite owned by EUMETSAT (DE) in GEO that was launched on Thu, 05 Jul 2012 UTC via an ARIANE 5ECA launch vehicle from the French Guiana (FRGUI). Payload-class satellites include a variety of spacecraft equipped with specific instruments for various scientific and technological missions. These include communications satellites like Starlink; space stations such as the ISS; scientific satellites like the Hubble; Earth observation satellites from companies like Planet Labs, Umbra, and HawkEye 360; GPS; miniature CubeSats for education and research; and military/defense satellites.

Not visible in the next 10 days
Identifier
38552, 2012-035B
Orbit
GEO
Country
Flag of DEDE / EUME
Related business
Manufacturer
Thales Alenia
Mission
Operational Civil Weather
Bus & Motor
MSG, S400 X2
Mass
2,035 kg wet, 1,000 kg dry
Launch date (UTC)
2012-07-05 (14 years ago)
Launch vehicle
ARIANE 5ECA
Launch site
French Guiana (FRGUI)
Object type
Payload
Rocket body
Debris
Shape & HBR
Cyl, 2.0 m
Radar Cross Section
10.053 m², Large (>1 m²)

Expand to show TLE details & history
Last TLE update: 2 days ago

TLE from 2 days ago
0 METEOSAT 10 (MSG 3)
1 38552U 12035B   26171.03561044 -.00000013  00000-0  00000-0 0  9999
2 38552   4.6793  61.0121 0001484   2.4454 217.8971  1.00266543 50884
Epoch: 2026-06-20T00:51Z
TLE epoch observation values (Epoch: 2026-06-20T00:51:16.742Z)
Latitude
-3.04902°
Longitude
0.19078°
Altitude
35,792.98 km
Speed
3.074 km/s
True Right ascension
18h 45m 03s
True Declination
-3° 02' 45"
Sunlit
Object was in daylight at epoch
Visualization orbit readout
Latitude
Unknown
Longitude
Unknown
Altitude
Unknown
Speed
Unknown
Apparent Right ascension
Unknown
Apparent Declination
Unknown
Sunlit
N/A
Visualization observer readout
Local Sidereal Time
23:18:29
Azimuth
Unknown
Elevation
Unknown
Doppler factor
Unknown
Orbital elements
Apogee altitude
35,795.382 km
Perigee altitude
35,782.867 km
Semi-major axis
42,167.261 km
Eccentricity
0.00015
Inclination
4.6793°
RAAN
61.0121°
Arg. of periapsis
2.4454°
True anomaly
217.88666°
Mean anomaly
217.8971°
Eccentric anomaly
217.89188°
Mean motion
0.25066 °/min
Orbital period
1,436.22 mins
BSTAR
0
Loading maneuver chart data...
Computing Atmospheric mass density...
Loading historical data...
Loading historical data...
Loading historical data...
Loading historical data...
Loading historical data...
Loading historical data...
Loading historical data...

Documentation

Showing up to 5 results
|